Location: Newark
(39.9581°N, 97.2014°W)
Time: 16:55:12
(UTC+00:00)

Explorer 11/Cluster Stage 4 - All Passes

Search period start: 21 February 2020 00:00
Search period end: 02 March 2020 00:00
Orbit: 467 x 1259 km, 28.8° (Epoch: 20 February)

Date Brightness Start Highest point End Pass type
(mag) Time Alt. Az. Time Alt. Az. Time Alt. Az.
21 Feb - 08:27:24 10° S 08:28:51 11° SSE 08:30:14 10° SSE night (unlit)
21 Feb - 10:14:07 10° SW 10:16:30 15° S 10:18:45 10° SE visible
21 Feb - 12:02:52 10° SSW 12:04:02 11° SSW 12:05:12 10° S visible
22 Feb - 08:15:50 10° SSW 08:18:08 14° S 08:20:17 10° SE night (unlit)
22 Feb - 10:03:15 10° SW 10:05:49 16° S 10:08:13 10° SE visible
22 Feb - 11:52:49 10° SSW 11:53:20 10° SSW 11:53:51 10° S visible
23 Feb - 08:04:29 10° SSW 08:07:27 16° S 08:10:06 10° SE night (unlit)
23 Feb - 09:52:23 10° SW 09:55:08 17° S 09:57:40 10° SE night (unlit)
24 Feb - 06:07:29 10° S 06:08:50 11° SSE 06:10:07 10° SSE night (unlit)
24 Feb - 07:53:15 10° SW 07:56:44 18° S 07:59:48 10° SE night (unlit)
24 Feb - 09:41:31 10° SW 09:44:27 17° S 09:47:07 10° SE night (unlit)
25 Feb - 05:55:13 10° SSW 05:58:02 13° SSE 06:00:39 10° SE night (unlit)
25 Feb - 07:42:03 10° SW 07:46:01 20° S 07:49:25 10° SE night (unlit)
25 Feb - 09:30:37 10° SW 09:33:45 18° S 09:36:33 10° SSE night (unlit)
26 Feb - 05:43:28 10° SSW 05:47:15 16° SSE 05:50:38 10° SE night (unlit)
26 Feb - 07:30:54 10° SW 07:35:16 22° S 07:39:00 10° SE night (unlit)
26 Feb - 09:19:44 10° SW 09:23:01 18° SSW 09:25:56 10° SSE night (unlit)
27 Feb - 05:31:55 10° SSW 05:36:26 19° SSE 05:40:24 10° ESE night (unlit)
27 Feb - 07:19:46 10° SW 07:24:30 24° S 07:28:31 10° SE night (unlit)
27 Feb - 09:08:51 10° WSW 09:12:16 18° SSW 09:15:18 10° SSE night (unlit)
28 Feb - 03:35:40 10° S 03:37:25 11° SSE 03:39:05 10° SE visible
28 Feb - 05:20:29 10° SW 05:25:36 22° SSE 05:30:03 10° ESE night (unlit)
28 Feb - 07:08:38 10° SW 07:13:44 26° S 07:18:00 10° SE night (unlit)
28 Feb - 08:57:57 10° WSW 09:01:31 18° SSW 09:04:38 10° SSE night (unlit)
29 Feb - 03:23:07 10° S 03:26:29 13° SSE 03:29:41 10° SE visible
29 Feb - 05:09:07 10° SW 05:14:45 24° S 05:19:36 10° ESE night (unlit)
29 Feb - 06:57:31 10° WSW 07:02:56 27° S 07:07:27 10° SE night (unlit)
29 Feb - 08:47:04 10° WSW 08:50:43 18° SSW 08:53:55 10° SSE night (unlit)
01 Mar - 03:11:09 10° SSW 03:15:33 16° SSE 03:19:40 10° ESE visible
01 Mar - 04:57:48 10° SW 05:03:52 27° S 05:09:07 10° ESE night (unlit)
01 Mar - 06:46:26 10° WSW 06:52:07 29° S 06:56:51 10° SE night (unlit)
01 Mar - 08:36:12 10° WSW 08:39:55 17° SSW 08:43:11 10° SSE night (unlit)
